Lexington Weather

Lexington, Massachusetts, USA

48°F
12/8/2022 3:02pm 
  • Lexington Conditions: Clear
  • Temperature: 48.4°F / 9.1°CColder 1.4°F than last hour.
  • Dew Point: 35.1°FDecreased 1.0°Fsince last hour.
  • Relative Humidity: 60%Increased 1.0% since last hour.
  • Wind: Wind from NNE NNE Calm, 10-min avg: 2 mph, gust: 8 mph
  • Barometer: 30.08 inRising 0.02  inHg/hr Rising Slowly
  • Visibility: 10 miles
  • Rain Today: 0.00 in
  •   

Warning: Undefined variable $rc in /homepages/6/d276339138/htdocs/weather/20190804/ssi/nwsProduct.php on line 323

Warning: Undefined variable $rc in /homepages/6/d276339138/htdocs/weather/20190804/ssi/nwsProduct.php on line 325

Warning: Undefined variable $rc in /homepages/6/d276339138/htdocs/weather/20190804/ssi/nwsProduct.php on line 323

Warning: Undefined variable $rc in /homepages/6/d276339138/htdocs/weather/20190804/ssi/nwsProduct.php on line 325

Warning: Undefined variable $rc in /homepages/6/d276339138/htdocs/weather/20190804/ssi/nwsProduct.php on line 323

Warning: Undefined variable $rc in /homepages/6/d276339138/htdocs/weather/20190804/ssi/nwsProduct.php on line 325

Warning: Undefined variable $rc in /homepages/6/d276339138/htdocs/weather/20190804/ssi/nwsProduct.php on line 323

Warning: Undefined variable $rc in /homepages/6/d276339138/htdocs/weather/20190804/ssi/nwsProduct.php on line 325

Warning: Undefined variable $rc in /homepages/6/d276339138/htdocs/weather/20190804/ssi/nwsProduct.php on line 323

Warning: Undefined variable $rc in /homepages/6/d276339138/htdocs/weather/20190804/ssi/nwsProduct.php on line 325

Warning: Undefined variable $rc in /homepages/6/d276339138/htdocs/weather/20190804/ssi/nwsProduct.php on line 323

Warning: Undefined variable $rc in /homepages/6/d276339138/htdocs/weather/20190804/ssi/nwsProduct.php on line 325

Warning: Undefined variable $rc in /homepages/6/d276339138/htdocs/weather/20190804/ssi/nwsProduct.php on line 323

Warning: Undefined variable $rc in /homepages/6/d276339138/htdocs/weather/20190804/ssi/nwsProduct.php on line 325

Regional Weather Roundup
for Boston, MA

        
000
ASUS41 KBOX 030710
RWRBOX

REGIONAL WEATHER ROUNDUP
NATIONAL WEATHER SERVICE BOSTON/NORTON MA
200 AM EST SAT DEC 03 2022

NOTE:  "FAIR" INDICATES FEW OR NO CLOUDS BELOW 12,000 FEET WITH NO 
SIGNIFICANT WEATHER AND/OR OBSTRUCTIONS TO VISIBILITY.

MAZALL-030800-
EASTERN MASSACHUSETTS
  
CITY           SKY/WX    TMP DP  RH WIND       PRES   REMARKS
BOSTON         MOCLDY    39  34  82 S8        30.41F                  
BEVERLY        CLEAR     39  33  79 S6        30.39F                  
LAWRENCE       CLEAR     41  33  73 S7        30.40F                  
BEDFORD        CLEAR     40  32  73 S7        30.38F                  
NORWOOD        CLEAR     32  29  88 CALM      30.41F                  
MARSHFIELD       N/A     34  32  93 CALM      30.41F                  
PLYMOUTH       CLEAR     33  31  92 CALM      30.40F                  
TAUNTON          N/A    N/A N/A N/A MISG      30.41F                  
NEW BEDFORD    CLEAR     41  38  89 S3        30.40F                  
$$

MAZALL-030800-
CAPE COD AND THE ISLANDS
  
CITY           SKY/WX    TMP DP  RH WIND       PRES   REMARKS
FALMOUTH       MOCLDY    43  39  87 S7        30.43                   
HYANNIS        PTCLDY    45  42  89 S5        30.42F                  
CHATHAM        CLEAR     47  42  83 S5        30.46R                  
PROVINCETOWN   PTCLDY    47  41  80 SW10      30.44S                  
NANTUCKET      CLEAR     50  46  86 S8        30.46R                  
MARTHAS VNYRD  PTCLDY    50  42  74 S13       30.43F                  
$$
 
MAZALL-030800-
CENTRAL AND WESTERN MASSACHUSETTS
  
CITY           SKY/WX    TMP DP  RH WIND       PRES   REMARKS
WORCESTER      CLOUDY    39  32  76 SW12      30.34F WCI  32          
FITCHBURG      CLOUDY    38  29  70 SE8       30.37F                  
ORANGE         CLOUDY    40  31  70 S9G17     30.34F                  
SPRINGFIELD    CLOUDY    37  31  78 S6        30.33F                  
WESTFIELD      CLOUDY    37  30  75 S5        30.34F                  
NORTH ADAMS    MOCLDY    41  24  51 E8G17     30.27F                  
PITTSFIELD     MOCLDY    39  27  62 S14G24    30.25F WCI  31          
$$
 
RIZALL-030800-
RHODE ISLAND
  
CITY           SKY/WX    TMP DP  RH WIND       PRES   REMARKS
PROVIDENCE     MOCLDY    36  34  92 CALM      30.41F                  
NEWPORT        MOCLDY    48  39  71 S9G20     30.40F                  
BLOCK ISLAND   PTCLDY    49  42  77 SW14      30.41F                  
SMITHFIELD     CLOUDY    39  35  86 VRB3      30.39F                  
WESTERLY       PTCLDY    48  40  73 S8        30.40F                  
$$
 
CTZALL-030800-
CONNECTICUT
  
CITY           SKY/WX    TMP DP  RH WIND       PRES   REMARKS
BRADLEY INTL   CLOUDY    39  32  76 S7        30.36F                  
HARTFORD       CLOUDY    41  34  76 S3        30.37F                  
BRIDGEPORT     MOCLDY    42  36  79 N3        30.36F                  
DANBURY        MOCLDY    41  32  70 SE7       30.34F                  
GROTON         CLEAR     50  41  71 S12       30.40F                  
NEW HAVEN      CLOUDY    50  42  74 S9        30.36F                  
CHESTER        FAIR      43  39  87 S7        30.37F                  
MERIDEN        MOCLDY    34  30  85 CALM      30.37F                  
WILLIMANTIC    CLOUDY    32  31  96 CALM      30.39F                  
OXFORD         CLOUDY    40  35  83 S8        30.34F                  
$$

MEZ002-015-021-024-NHZ003-005-008-011-012-014-VTZ005-008-030800-
NORTHERN NEW ENGLAND
  
CITY           SKY/WX    TMP DP  RH WIND       PRES   REMARKS
PORTLAND ME    CLEAR     40  34  79 SW7       30.39S                  
BANGOR ME      CLOUDY    34  28  79 S3        30.37F                  
CONCORD NH     MOCLDY    36  28  73 SE8       30.35F WCI  30          
MANCHESTER NH  CLOUDY    39  30  70 S12       30.35F WCI  32          
NASHUA NH      MOCLDY    38  33  82 SE3       30.38F                  
PORTSMOUTH NH  MOCLDY    38  31  77 S8        30.39S WCI  32          
JAFFREY NH     CLOUDY    38  28  67 VRB5      30.31F                  
KEENE NH       CLOUDY    39  28  64 S9          N/A                   
BURLINGTON VT  CLEAR     41  23  48 S22G37    30.12F WCI  31          
MT. WASHINGTON MOCLDY    30   3  31 SW39G51     N/A  WCI  13          
$$

NYZ052-076-030800-
EASTERN NEW YORK
  
CITY           SKY/WX    TMP DP  RH WIND       PRES   REMARKS
ALBANY         MOCLDY    41  24  51 S20       30.23F WCI  32          
NEW YORK CITY  CLOUDY    46  35  65 S6        30.35F                  
$$
 
ANZALL-030800-
MARINE OBSERVATIONS
  
STATION/POSITION TIME  TEMP    WIND        PRES    VSBY  WAVE
                       AIR SEA DIR/SP/G                  HT/PER
                 (UTC) (F)     (DEG/KT/KT) (MB)    (MI)  (FT/S)
BOSTON BUOY      0650          190/  8/ 10 1030.5F         2/10
BUZZARDS BAY     0600   50     210/ 18/ 20 1031.1S
NANTUCKET SOUND  0650   51 49  210/ 14/ 16 1030.8S         2/ 3
MASS BAY-STELLWA 0504   47 50  200/ 14/ 17 1030.0F  1 7/8  2/ 4
ISLE OF SHOALS   0600   44     200/ 20/ 22 1028.9F
S OF BLOCK IS    0626      56                N/A           4/ 5
$$

......................KEY.........................
  SKY/WX - SKY CONDITION/PRESENT WEATHER
  TMP    - TEMPERATURE IN FAHRENHEIT
  DWPT   - DEWPOINT IN FAHRENHEIT
  RH     - RELATIVE HUMIDITY IN PERCENT
  WIND   - DIRECTION AND SPEED IN MPH
  PRES   - MEAN SEA LEVEL PRESSURE IN INCHES OF HG
  WCI    - WIND CHILL INDEX
  VSB    - VISIBILITY IN MILES
  HX     - HEAT INDEX
  TC     - TEMPERATURE IN CELSIUS
  VRB    - VARIABLE WIND DIRECTION
  N/A    - NOT AVAILABLE
  
      

Other recent Regional Weather Roundups

Thu Dec 8, 2:10pm

Thu Dec 8, 1:10pm

Thu Dec 8, 12:10pm

Thu Dec 8, 11:10am

Thu Dec 8, 10:10am

Thu Dec 8, 9:10am

Thu Dec 8, 8:10am

Thu Dec 8, 7:10am

Thu Dec 8, 6:10am

Thu Dec 8, 5:10am

Thu Dec 8, 4:10am

Thu Dec 8, 3:10am

Thu Dec 8, 2:10am

Thu Dec 8, 1:10am

Thu Dec 8, 12:10am

Wed Dec 7, 11:10pm

Wed Dec 7, 10:10pm

Wed Dec 7, 9:10pm

Wed Dec 7, 8:10pm

Wed Dec 7, 7:10pm

Wed Dec 7, 6:10pm

Wed Dec 7, 5:10pm

Wed Dec 7, 4:10pm

Wed Dec 7, 3:10pm

Wed Dec 7, 2:10pm

Wed Dec 7, 1:10pm

Wed Dec 7, 12:10pm

Wed Dec 7, 11:10am

Wed Dec 7, 10:10am

Wed Dec 7, 9:10am

Wed Dec 7, 8:10am

Wed Dec 7, 7:10am

Wed Dec 7, 6:10am

Wed Dec 7, 5:10am

Wed Dec 7, 4:10am

Wed Dec 7, 3:10am

Wed Dec 7, 2:10am

Wed Dec 7, 1:10am

Wed Dec 7, 12:10am

Tue Dec 6, 11:10pm

Tue Dec 6, 10:10pm

Tue Dec 6, 9:10pm

Tue Dec 6, 8:10pm

Tue Dec 6, 7:10pm

Tue Dec 6, 6:10pm

Tue Dec 6, 5:10pm

Tue Dec 6, 4:10pm

Tue Dec 6, 3:10pm

Tue Dec 6, 2:10pm

Tue Dec 6, 1:10pm

Tue Dec 6, 12:10pm

Tue Dec 6, 11:10am

Tue Dec 6, 10:10am

Tue Dec 6, 9:10am

Tue Dec 6, 8:10am

Tue Dec 6, 7:10am

Tue Dec 6, 6:10am

Tue Dec 6, 5:10am

Tue Dec 6, 4:10am

Tue Dec 6, 3:10am

Tue Dec 6, 2:10am

Tue Dec 6, 1:10am

Tue Dec 6, 12:10am

Mon Dec 5, 11:10pm

Mon Dec 5, 10:10pm

Mon Dec 5, 9:10pm

Mon Dec 5, 8:10pm

Mon Dec 5, 7:10pm

Mon Dec 5, 6:10pm

Mon Dec 5, 5:10pm

Mon Dec 5, 4:10pm

Mon Dec 5, 3:10pm

Mon Dec 5, 2:10pm

Mon Dec 5, 1:10pm

Mon Dec 5, 12:10pm

Mon Dec 5, 11:10am

Mon Dec 5, 10:10am

Mon Dec 5, 9:10am

Mon Dec 5, 8:10am

Mon Dec 5, 7:10am

Mon Dec 5, 6:10am

Mon Dec 5, 5:10am

Mon Dec 5, 4:10am

Mon Dec 5, 3:10am

Mon Dec 5, 2:10am

Mon Dec 5, 1:10am

Mon Dec 5, 12:10am

Sun Dec 4, 11:10pm

Sun Dec 4, 10:10pm

Sun Dec 4, 9:10pm

Sun Dec 4, 8:10pm

Sun Dec 4, 7:10pm

Sun Dec 4, 6:10pm

Sun Dec 4, 5:10pm

Sun Dec 4, 4:10pm

Sun Dec 4, 3:10pm

Sun Dec 4, 2:10pm

Sun Dec 4, 1:10pm

Sun Dec 4, 12:10pm

Sun Dec 4, 11:10am

Sun Dec 4, 10:10am

Sun Dec 4, 9:10am

Sun Dec 4, 8:10am

Sun Dec 4, 7:10am

Sun Dec 4, 6:10am

Sun Dec 4, 5:10am

Sun Dec 4, 4:10am

Sun Dec 4, 3:10am

Sun Dec 4, 2:10am

Sun Dec 4, 1:10am

Sun Dec 4, 12:10am

Sat Dec 3, 11:10pm

Sat Dec 3, 10:10pm

Sat Dec 3, 9:10pm

Sat Dec 3, 8:10pm

Sat Dec 3, 7:10pm

Sat Dec 3, 6:10pm

Sat Dec 3, 5:10pm

Sat Dec 3, 4:10pm

Sat Dec 3, 3:10pm

Sat Dec 3, 2:10pm

Sat Dec 3, 1:10pm

Sat Dec 3, 12:10pm

Sat Dec 3, 11:10am

Sat Dec 3, 10:10am

Sat Dec 3, 9:10am

Sat Dec 3, 8:10am

Sat Dec 3, 7:10am

Sat Dec 3, 6:10am

Sat Dec 3, 5:10am

Sat Dec 3, 4:10am

Sat Dec 3, 3:10am

Sat Dec 3, 1:10am

Sat Dec 3, 12:10am

Fri Dec 2, 11:10pm

Fri Dec 2, 10:10pm

Fri Dec 2, 9:10pm

Fri Dec 2, 8:10pm

Fri Dec 2, 7:10pm

Fri Dec 2, 6:10pm

Fri Dec 2, 5:10pm

Fri Dec 2, 4:10pm

Fri Dec 2, 3:10pm

Fri Dec 2, 2:10pm

Fri Dec 2, 1:10pm

Fri Dec 2, 12:10pm

Fri Dec 2, 11:10am

Fri Dec 2, 10:10am

Fri Dec 2, 9:10am

Fri Dec 2, 8:10am

Fri Dec 2, 7:10am

Fri Dec 2, 6:10am

Fri Dec 2, 5:10am

Fri Dec 2, 4:10am

Fri Dec 2, 3:10am

Fri Dec 2, 2:10am

Fri Dec 2, 1:10am

Fri Dec 2, 12:10am

Thu Dec 1, 11:10pm

Thu Dec 1, 10:10pm

Thu Dec 1, 9:10pm

Thu Dec 1, 8:10pm

Thu Dec 1, 7:10pm

Thu Dec 1, 6:10pm

Thu Dec 1, 5:10pm

Thu Dec 1, 4:10pm

Thu Dec 1, 3:10pm

Meta data:

ID: a7af08f0-c311-4273-b9e2-e1b427dd26ea
Link: https://api.weather.gov/products/a7af08f0-c311-4273-b9e2-e1b427dd26ea